Location: Peebles
(55.6412°N, 3.1714°W)
Time: 23:43:42
(UTC+00:00)

EO 1 Delta rocket - Visible Passes

Search period start: 27 January 2022 00:00
Search period end: 06 February 2022 00:00
Orbit: 696 x 1792 km, 95.4° (Epoch: 27 January)

Date Brightness Start Highest point End Pass type
(mag) Time Alt. Az. Time Alt. Az. Time Alt. Az.
27 Jan 5.6 04:20:05 10° NNE 04:25:35 44° E 04:32:29 10° SSE visible
27 Jan 4.8 06:09:46 10° N 06:15:07 45° WNW 06:21:46 10° SW visible
28 Jan 5.7 04:15:49 10° NNE 04:21:23 43° E 04:28:22 10° SSE visible
28 Jan 4.8 06:05:27 10° N 06:10:55 47° WNW 06:17:46 10° SW visible
29 Jan 5.7 04:11:32 10° NNE 04:17:11 43° E 04:24:16 10° SSE visible
29 Jan 4.8 06:01:09 10° N 06:06:43 49° WNW 06:13:46 10° SW visible
30 Jan 5.8 04:07:15 10° NNE 04:12:59 42° E 04:20:10 10° SSE visible
30 Jan 4.8 05:56:51 10° N 06:02:32 51° WNW 06:09:45 10° SW visible
31 Jan 5.9 04:02:59 10° NNE 04:08:48 41° E 04:16:05 10° SSE visible
31 Jan 4.8 05:52:32 10° N 05:58:22 53° WNW 06:05:45 10° SW visible
01 Feb 5.9 03:58:43 10° NNE 04:04:36 41° E 04:12:00 10° SSE visible
01 Feb 4.9 05:48:15 10° N 05:54:11 55° WNW 06:01:46 10° SW visible
02 Feb 6.0 03:54:27 10° NNE 04:00:26 40° E 04:07:54 10° SSE visible
02 Feb 4.9 05:43:57 10° N 05:50:01 57° WNW 05:57:46 10° SSW visible
03 Feb 6.0 03:50:11 10° NNE 03:56:15 40° E 04:03:49 10° SSE visible
03 Feb 4.9 05:39:40 10° N 05:45:52 59° WNW 05:53:47 10° SSW visible
04 Feb 6.1 03:45:56 10° NNE 03:52:05 39° E 03:59:43 10° SSE visible
04 Feb 4.9 05:35:23 10° N 05:41:42 61° WNW 05:49:47 10° SSW visible
05 Feb 6.2 03:41:41 10° NNE 03:47:55 38° E 03:55:38 10° SSE visible
05 Feb 4.9 05:31:06 10° N 05:37:33 63° WNW 05:45:48 10° SSW visible
